| time (UTC) | temp C | wind direction | speed KPH | gust KPH | rain 1hr cm | rain 24hr cm | rain mn cm | humidity % | barometer mb |
| 20260504205017 | 25 | 158 | 1.6 | 6.4 | 0.00 | 0.00 | 0.00 | 36 | 1009.5 |
| 20260504204015 | 25 | 158 | 3.2 | 8.0 | 0.00 | 0.00 | 0.00 | 36 | 1009.6 |
| 20260504203015 | 25 | 158 | 4.8 | 9.7 | 0.00 | 0.00 | 0.00 | 34 | 1009.6 |
| 20260504202015 | 25 | 158 | 3.2 | 8.0 | 0.00 | 0.00 | 0.00 | 34 | 1009.7 |
| 20260504201015 | 25 | 135 | 3.2 | 8.0 | 0.00 | 0.00 | 0.00 | 36 | 1009.7 |
| 20260504200116 | 25 | 158 | 1.6 | 6.4 | 0.00 | 0.00 | 0.00 | 36 | 1009.8 |
| 20260504195037 | 24 | 135 | 3.2 | 6.4 | 0.00 | 0.00 | 0.00 | 37 | 1009.7 |
| 20260504194055 | 24 | 158 | 3.2 | 8.0 | 0.00 | 0.00 | 0.00 | 39 | 1009.7 |
| 20260504193017 | 24 | 135 | 3.2 | 8.0 | 0.00 | 0.00 | 0.00 | 38 | 1009.8 |
| 20260504192017 | 24 | 158 | 3.2 | 8.0 | 0.00 | 0.00 | 0.00 | 39 | 1009.9 |
| 20260504191037 | 24 | 158 | 3.2 | 8.0 | 0.00 | 0.00 | 0.00 | 39 | 1009.9 |
| 20260504190015 | 23 | 135 | 3.2 | 6.4 | 0.00 | 0.00 | 0.00 | 40 | 1009.9 |
| 20260504185016 | 23 | 158 | 3.2 | 6.4 | 0.00 | 0.00 | 0.00 | 40 | 1010.0 |
| 20260504184057 | 24 | 158 | 3.2 | 6.4 | 0.00 | 0.00 | 0.00 | 41 | 1010.0 |
| 20260504183018 | 24 | 158 | 3.2 | 6.4 | 0.00 | 0.00 | 0.00 | 40 | 1009.9 |
| 20260504182015 | 24 | 203 | 1.6 | 6.4 | 0.00 | 0.00 | 0.00 | 42 | 1009.9 |
| 20260504181037 | 24 | 68 | 1.6 | 6.4 | 0.00 | 0.00 | 0.00 | 41 | 1010.0 |
| 20260504180016 | 24 | 135 | 1.6 | 6.4 | 0.00 | 0.00 | 0.00 | 41 | 1010.0 |
| 20260504175015 | 23 | 68 | 1.6 | 4.8 | 0.00 | 0.00 | 0.00 | 44 | 1010.0 |
| 20260504174015 | 23 | 68 | 1.6 | 6.4 | 0.00 | 0.00 | 0.00 | 45 | 1010.0 |
| 20260504173037 | 22 | 68 | 1.6 | 6.4 | 0.00 | 0.00 | 0.00 | 47 | 1010.1 |
| 20260504172015 | 22 | 68 | 1.6 | 4.8 | 0.00 | 0.00 | 0.00 | 47 | 1010.1 |
| 20260504171017 | 21 | 68 | 1.6 | 6.4 | 0.00 | 0.00 | 0.00 | 49 | 1010.1 |
| 20260504151035 | 16 | 0.0 | 1.6 | 0.00 | 0.00 | 0.00 | 66 | 1009.9 | |
| 20260504141015 | 12 | 0.0 | 0.0 | 0.00 | 0.00 | 0.00 | 79 | 1009.3 | |
| 20260504081039 | 13 | 0.0 | 0.0 | 0.00 | 0.00 | 0.00 | 71 | 1008.5 | |
| 20260504050019 | 17 | 0.0 | 0.0 | 0.00 | 0.00 | 0.00 | 55 | 1009.0 | |
| 20260504045037 | 17 | 0.0 | 0.0 | 0.00 | 0.00 | 0.00 | 56 | 1009.1 | |
| 20260504044017 | 17 | 0.0 | 0.0 | 0.00 | 0.00 | 0.00 | 56 | 1009.1 | |
| 20260504043019 | 18 | 0.0 | 0.0 | 0.00 | 0.00 | 0.00 | 52 | 1009.1 | |
| 20260504042037 | 18 | 0.0 | 0.0 | 0.00 | 0.00 | 0.00 | 51 | 1009.0 | |
| 20260504041038 | 18 | 0.0 | 0.0 | 0.00 | 0.00 | 0.00 | 49 | 1009.0 | |
| 20260504040018 | 18 | 0.0 | 0.0 | 0.00 | 0.00 | 0.00 | 49 | 1009.0 | |
| 20260504035100 | 19 | 0.0 | 0.0 | 0.00 | 0.00 | 0.00 | 49 | 1008.9 | |
| 20260504034017 | 20 | 0.0 | 0.0 | 0.00 | 0.00 | 0.00 | 48 | 1008.9 | |
| 20260504033017 | 20 | 0.0 | 0.0 | 0.00 | 0.00 | 0.00 | 47 | 1008.9 | |
| 20260504032017 | 20 | 0.0 | 0.0 | 0.00 | 0.00 | 0.00 | 47 | 1009.0 | |
| 20260504031017 | 20 | 0.0 | 0.0 | 0.00 | 0.00 | 0.00 | 47 | 1009.0 | |
| 20260504030017 | 21 | 0.0 | 0.0 | 0.00 | 0.00 | 0.00 | 45 | 1009.0 | |
| 20260504025017 | 21 | 0.0 | 0.0 | 0.00 | 0.00 | 0.00 | 44 | 1009.0 | |
| 20260504024018 | 22 | 0.0 | 1.6 | 0.00 | 0.00 | 0.00 | 43 | 1008.9 | |
| 20260504023159 | 22 | 0.0 | 4.8 | 0.00 | 0.00 | 0.00 | 42 | 1008.9 | |
| 20260504022017 | 23 | 225 | 1.6 | 8.0 | 0.00 | 0.00 | 0.00 | 40 | 1009.1 |
| 20260504021037 | 23 | 225 | 1.6 | 8.0 | 0.00 | 0.00 | 0.00 | 40 | 1009.2 |
| 20260504020019 | 25 | 0.0 | 3.2 | 0.00 | 0.00 | 0.00 | 39 | 1009.2 | |
| 20260504015017 | 25 | 0.0 | 1.6 | 0.00 | 0.00 | 0.00 | 39 | 1009.2 | |
| 20260504014018 | 25 | 0.0 | 0.0 | 0.00 | 0.00 | 0.00 | 36 | 1009.3 | |
| 20260504013017 | 25 | 68 | 1.6 | 6.4 | 0.00 | 0.00 | 0.00 | 32 | 1009.3 |
| 20260504012018 | 25 | 68 | 3.2 | 9.7 | 0.00 | 0.00 | 0.00 | 31 | 1009.4 |
| 20260504011017 | 26 | 68 | 3.2 | 11.3 | 0.00 | 0.00 | 0.00 | 30 | 1009.6 |
| 20260504010017 | 26 | 90 | 4.8 | 11.3 | 0.00 | 0.00 | 0.00 | 31 | 1009.7 |
| 20260504005019 | 25 | 68 | 4.8 | 12.9 | 0.00 | 0.00 | 0.00 | 31 | 1009.7 |
| 20260504004037 | 25 | 68 | 3.2 | 8.0 | 0.00 | 0.00 | 0.00 | 31 | 1009.9 |
| 20260504003017 | 26 | 68 | 3.2 | 12.9 | 0.00 | 0.00 | 0.00 | 31 | 1010.0 |
| 20260504002018 | 26 | 68 | 4.8 | 12.9 | 0.00 | 0.00 | 0.00 | 32 | 1010.1 |
| 20260504001018 | 26 | 68 | 4.8 | 11.3 | 0.00 | 0.00 | 0.00 | 31 | 1010.2 |
| 20260504000018 | 26 | 68 | 3.2 | 9.7 | 0.00 | 0.00 | 0.00 | 32 | 1010.3 |
| 20260503235017 | 25 | 68 | 3.2 | 12.9 | 0.00 | 0.00 | 0.00 | 31 | 1010.4 |
| 20260503234015 | 25 | 45 | 4.8 | 12.9 | 0.00 | 0.00 | 0.00 | 32 | 1010.6 |
| 20260503233017 | 25 | 68 | 4.8 | 16.1 | 0.00 | 0.00 | 0.00 | 32 | 1010.7 |
| 20260503232017 | 25 | 90 | 6.4 | 14.5 | 0.00 | 0.00 | 0.00 | 32 | 1010.8 |
| 20260503231017 | 25 | 23 | 4.8 | 11.3 | 0.00 | 0.00 | 0.00 | 32 | 1010.9 |
| 20260503230016 | 25 | 68 | 6.4 | 17.7 | 0.00 | 0.00 | 0.00 | 33 | 1010.9 |
| 20260503225017 | 25 | 68 | 6.4 | 16.1 | 0.00 | 0.00 | 0.00 | 34 | 1011.1 |
| 20260503224016 | 25 | 45 | 4.8 | 12.9 | 0.00 | 0.00 | 0.00 | 34 | 1011.2 |
| 20260503223016 | 25 | 68 | 6.4 | 17.7 | 0.00 | 0.00 | 0.00 | 34 | 1011.3 |
| 20260503222017 | 25 | 68 | 6.4 | 16.1 | 0.00 | 0.00 | 0.00 | 34 | 1011.5 |
| 20260503221015 | 25 | 45 | 4.8 | 14.5 | 0.00 | 0.00 | 0.00 | 34 | 1011.6 |
| 20260503220015 | 24 | 23 | 8.0 | 19.3 | 0.00 | 0.00 | 0.00 | 36 | 1011.6 |
| 20260503215015 | 25 | 90 | 6.4 | 17.7 | 0.00 | 0.00 | 0.00 | 35 | 1011.8 |
| 20260503214017 | 25 | 90 | 6.4 | 16.1 | 0.00 | 0.00 | 0.00 | 36 | 1011.8 |
| 20260503213015 | 24 | 0 | 6.4 | 17.7 | 0.00 | 0.00 | 0.00 | 37 | 1012.0 |
| 20260503212015 | 23 | 45 | 4.8 | 12.9 | 0.00 | 0.00 | 0.00 | 39 | 1012.1 |
| 20260503211016 | 23 | 0 | 6.4 | 19.3 | 0.00 | 0.00 | 0.00 | 39 | 1012.2 |
| 20260503210015 | 23 | 68 | 6.4 | 16.1 | 0.00 | 0.00 | 0.00 | 42 | 1012.4 |